Tracking 29892 objects as of 21-Nov-2024
HD Live streaming from Space Station
objects crossing your sky now

NOAA 16 DEB

Track NOAA 16 DEB now!
10-day predictions


NORAD ID: 41533
Int'l Code: 2000-055NH
Perigee: 433.6 km
Apogee: 463.0 km
Inclination: 98.8 °
Period: 93.4 minutes
Semi major axis: 6819 km
RCS: Unknown
Launch date: September 21, 2000
Source: United States (US)
Launch site: AIR FORCE WESTERN TEST RANGE (AFWTR)

Note: This is SATELLITE DEBRIS
Your satellite tracking list
Your tracking list is empty




NASA's NSSDC Master Catalog

Two Line Element Set (TLE):
1 41533U 00055NH  24314.90593699  .01806215  00000-0  38446-1 0  9999
2 41533  98.7929 182.4364 0021576  96.7296 263.6403 15.41670588    10
Source of the keplerian elements: AFSPC